Location: Zapote
(9.9191°N, 84.0597°W)
Time: 03:01:34
(UTC-06:00)

N. Korean satellite - Pass Details

Date: 25 January 2021
Orbit: 451 x 503 km, 97.2° (Epoch: 27 February)

Event Time Altitude Azimuth Distance (km) Brightness Sun altitude
Rises 05:09:48 0° 355° (N) 2,453 9.9 -12.3°
Reaches altitude 10° 05:12:00 10° 344° (NNW) 1,578 8.8 -11.8°
Maximum altitude 05:14:57 29° 282° (WNW) 856 7.2 -11.1°
Drops below altitude 10° 05:17:55 10° 220° (SW) 1,576 8.9 -10.4°
Sets 05:20:07 0° 209° (SSW) 2,449 10.0 -9.9°
